Afonsos, Brazil

8:59 PM -03 on April 24, 2018 (GMT -0300)
Afonsos

Weather History for SBAF - February, 2014

Change the Weather History Date:

Friday, February 28, 2014

  Actual Average Record
Temperature  
Mean Temperature 86 °F -  
Max Temperature 95 °F 89 °F 96 °F (2012)
Min Temperature 73 °F 75 °F 69 °F (2012)
Cooling Degree Days 21    
Growing Degree Days 36 (Base 50)    
Moisture  
Dew Point 69 °F    
Average Humidity 63    
Maximum Humidity 83    
Minimum Humidity 39    
Precipitation  
Precipitation 0.00 in - - ()
Sea Level Pressure  
Sea Level Pressure 29.81 in    
Wind  
Wind Speed 5 mph ()    
Max Wind Speed 17 mph    
Max Gust Speed -    
Visibility 6.2 miles    
Events Rain , Thunderstorm    
Averages and records for this station are not official NWS values.
T = Trace of Precipitation, MM = Missing Value Source: Averaged Metar Reports

Daily Weather History Graph

Daily Weather History Graph

Search for Another Location

Airport or City:

Astronomy

Feb. 28, 2014 Rise Set
Actual Time 5:48 AM -03 6:22 PM -03
Civil Twilight 5:26 AM -03 6:45 PM -03
Nautical Twilight 4:59 AM -03 7:12 PM -03
Astronomical Twilight 4:32 AM -03 7:39 PM -03
Moon 4:52 AM -03 (2/28) 5:44 PM -03 (2/28)
Length of Visible Light 13h 19m
Length of Day
12h 33m
Waning Crescent, 1% of the Moon is Illuminated
Feb 28
Waning Crescent
Mar 1
New
Mar 8
First Quarter
Mar 16
Full
Mar 23
Last Quarter

Hourly Weather History & Observations

Time (-03) Temp. Heat Index Dew Point Humidity Pressure Visibility Wind Dir Wind Speed Gust Speed Precip Events Conditions
12:00 AM 77.0 °F - 68.0 °F 74% 29.77 in - West 5.8 mph - N/A   Clear
1:00 AM 82.4 °F 85.4 °F 68.0 °F 62% 29.80 in - Calm Calm - N/A   Clear
2:00 AM 82.4 °F 85.4 °F 68.0 °F 62% 29.80 in - WNW 1.2 mph - N/A   Clear
3:00 AM 80.6 °F 83.2 °F 68.0 °F 65% 29.77 in - WSW 4.6 mph - N/A   Clear
4:00 AM 80.6 °F 83.2 °F 68.0 °F 65% 29.77 in - Calm Calm - N/A   Clear
5:00 AM 78.8 °F - 66.2 °F 65% 29.77 in - SW 3.5 mph - N/A   Clear
6:00 AM 77.0 °F - 69.8 °F 78% 29.83 in 6.2 mi South 2.3 mph - N/A   Partly Cloudy
7:00 AM 80.6 °F 84.6 °F 71.6 °F 74% 29.83 in 6.2 mi West 1.2 mph - N/A   Partly Cloudy
8:00 AM 82.4 °F 87.2 °F 71.6 °F 70% 29.86 in 6.2 mi West 3.5 mph - N/A   Scattered Clouds
9:00 AM 82.4 °F 86.3 °F 69.8 °F 66% 29.86 in 6.2 mi West 5.8 mph - N/A   Scattered Clouds
10:00 AM 89.6 °F 94.7 °F 69.8 °F 52% 29.86 in 6.2 mi SSE 5.8 mph - N/A   Partly Cloudy
11:00 AM 91.4 °F 95.4 °F 68.0 °F 46% 29.83 in 6.2 mi South 5.8 mph - N/A   Partly Cloudy
12:00 PM 93.2 °F 97.7 °F 68.0 °F 44% 29.83 in 6.2 mi South 9.2 mph - N/A   Mostly Cloudy
1:00 PM 93.2 °F 97.7 °F 68.0 °F 44% 29.80 in 6.2 mi SSE 12.7 mph - N/A   Mostly Cloudy
2:00 PM 95.0 °F 98.5 °F 66.2 °F 39% 29.77 in 6.2 mi SSE 12.7 mph - N/A   Partly Cloudy
3:00 PM 91.4 °F 93.2 °F 64.4 °F 41% 29.77 in 6.2 mi SSE 15.0 mph - N/A   Partly Cloudy
4:00 PM 87.8 °F 90.4 °F 66.2 °F 49% 29.77 in 6.2 mi South 17.3 mph - N/A   Partly Cloudy
5:00 PM 84.2 °F 86.6 °F 66.2 °F 55% 29.77 in 6.2 mi South 17.3 mph - N/A   Scattered Clouds
6:00 PM 80.6 °F 83.2 °F 68.0 °F 65% 29.80 in 6.2 mi South 6.9 mph - N/A Thunderstorm Thunderstorm
7:00 PM 77.0 °F - 69.8 °F 78% 29.83 in 6.2 mi SW 3.5 mph - N/A Thunderstorm Thunderstorm
8:00 PM 78.8 °F - 71.6 °F 78% 29.83 in 6.2 mi NE 3.5 mph - N/A Thunderstorm Thunderstorm
9:00 PM 78.8 °F - 71.6 °F 78% 29.89 in 6.2 mi NNW 6.9 mph - N/A   Mostly Cloudy
10:00 PM 77.0 °F - 69.8 °F 78% - 6.2 mi West 8.1 mph - N/A Rain , Thunderstorm Light Thunderstorms and Rain
11:00 PM 73.4 °F - 68.0 °F 83% 29.86 in 6.2 mi NE 3.5 mph - N/A   Mostly Cloudy